Regional Weather Roundup
Issued by NWS Nashville, TN

Home | Current Version | Previous Version | Text Only | Print | Product List | Glossary On
Versions: 1 2 3 4 5 6 7 8 9 10 11 12 13 14 15 16 17 18 19 20 21 22 23 24 25 26 27 28
000
ASUS44 KOHX 211310
RWROHX
MIDDLE TENNESSEE HOURLY WEATHER ROUNDUP
NATIONAL WEATHER SERVICE NASHVILLE TN
800 AM CDT SAT OCT 21 2017

NOTE: "FAIR" INDICATES FEW OR NO CLOUDS BELOW 12,000 FEET WITH
NO SIGNIFICANT WEATHER AND/OR OBSTRUCTIONS TO VISIBILITY.

* THESE REPORTS ARE NOT UNDER NWS QUALITY CONTROL AND MAY NOT
  REPORT WEATHER SUCH AS PRECIPITATION AND FOG.


TNZ005>011-023>034-057-059-062>066-078-080-211400
...NORTHERN MIDDLE TENNESSEE...

CITY           SKY/WX    TMP DP  RH WIND       PRES   REMARKS
CLARKSVILLE    CLOUDY    53  48  83 SE7       30.20R
CROSSVILLE     CLOUDY    50  47  89 CALM      30.30R
GALLATIN       SUNNY     50  48  93 CALM      30.27R FOG
DICKSON          N/A     57  46  66 S5        30.20R
NASHVILLE      CLOUDY    54  47  77 CALM      30.24R
PORTLAND       SUNNY     55  50  82 S5        30.22R
SMYRNA         CLOUDY    49  47  93 SE3       30.25R
SPARTA         SUNNY     52  50  93 CALM      30.26R
WEST NASHVILLE SUNNY     50  48  93 CALM      30.21R
$$
TNZ056-058-060-061-075>077-079-093>097-211400
...SOUTHERN MIDDLE TENNESSEE...

CITY           SKY/WX    TMP DP  RH WIND       PRES   REMARKS
COLUMBIA       SUNNY     46  45  93 CALM      30.21R
FAYETTEVILLE   SUNNY     55  46  71 CALM      30.24R
MURFREESBORO   CLOUDY    49  46  89 CALM      30.24R
PULASKI        SUNNY     45  45 100 CALM      30.24R
SHELBYVILLE    SUNNY     54  48  82 E5        30.24R
TULLAHOMA      SUNNY     52  46  82 SE3       30.26R
WINCHESTER     SUNNY     55  48  76 SE8         N/A
$$


...KEY TO REMARKS...
VSB - VISIBILITY IN MILES
WCI - WIND CHILL INDEX
HX  - HEAT INDEX





USA.gov is the U.S. government's official web portal to all federal, state and local government web resources and services.